ONEWEB-0591, 54657

Orbit data source: Space-Track

ONEWEB-0591, 54657 is a payload satellite owned by One Web (NAA) (UK) in LEO that was launched on Thu, 08 Dec 2022 UTC via an FALCON 9 launch vehicle from the Air Force Eastern Test Range (AFETR). Payload-class satellites include a variety of spacecraft equipped with specific instruments for various scientific and technological missions. These include communications satellites like Starlink; space stations such as the ISS; scientific satellites like the Hubble; Earth observation satellites from companies like Planet Labs, Umbra, and HawkEye 360; GPS; miniature CubeSats for education and research; and military/defense satellites.

Loading next visibility...
Identifier
54657, 2022-166R
Orbit
LEO
Country
Flag of UKUK
Related business
Manufacturer
One Web
Mission
Operational Commercial Communications
Bus & Motor
ARROW, Unknown motor
Mass
148 kg wet, ~140 kg dry
Launch date (UTC)
2022-12-08 (4 years ago)
Launch vehicle
FALCON 9
Launch site
Air Force Eastern Test Range (AFETR)
Object type
Payload
Rocket body
Debris
Shape & HBR
Trap Box + 2 Pan, 6.7 m
Radar Cross Section
3.464 m², Large (>1 m²)

Expand to show TLE details & history
Last TLE update: 2 days ago

TLE from 2 days ago
0 ONEWEB-0591
1 54657U 22166R   26171.26169560 -.00000049  00000-0 -14986-3 0  9992
2 54657  87.9250 243.3743 0002088  97.8801 262.2570 13.21825920171968
Epoch: 2026-06-20T06:16Z
TLE epoch observation values (Epoch: 2026-06-20T06:16:50.499Z)
Latitude
-0.00004°
Longitude
-119.31497°
Altitude
1,180.871 km
Speed
7.263 km/s
True Right ascension
16h 13m 29s
True Declination
0° 00' 00"
Sunlit
Object was in full shadow at epoch
Visualization orbit readout
Latitude
Unknown
Longitude
Unknown
Altitude
Unknown
Speed
Unknown
Apparent Right ascension
Unknown
Apparent Declination
Unknown
Sunlit
N/A
Visualization observer readout
Local Sidereal Time
21:26:39
Azimuth
Unknown
Elevation
Unknown
Doppler factor
Unknown
Orbital elements
Apogee altitude
1,176.433 km
Perigee altitude
1,173.279 km
Semi-major axis
7,552.993 km
Eccentricity
0.00021
Inclination
87.925°
RAAN
243.3743°
Arg. of periapsis
97.8801°
True anomaly
262.23329°
Mean anomaly
262.257°
Eccentric anomaly
262.24515°
Mean motion
3.30647 °/min
Orbital period
108.88 mins
BSTAR
-0.00014986
Loading maneuver chart data...
Computing Atmospheric mass density...
Loading historical data...
Loading historical data...
Loading historical data...
Loading historical data...
Loading historical data...
Loading historical data...
Loading historical data...

Documentation

Showing up to 5 results
|